CW8618 Weather Reports


time (UTC)temp
F
wind
direction
speed
knots
gust
knots
rain 1hr
in
rain 24hr
in
rain mn
in
humidity
%
barometer
mb
20260504000804 51 253 4.3 6.1 0.00 0.02 0.02 76 1006.5
20260504000305 51 252 2.6 15.6 0.00 0.02 0.02 76 1006.4
20260503230805 51 254 6.1 13.0 0.00 0.02 0.02 78 1006.5
20260503230304 50 258 5.2 18.2 0.00 0.02 0.02 78 1006.5
20260503220804 50 254 6.1 11.3 0.02 0.02 0.02 79 1007.1
20260503220306 50 259 4.3 21.7 0.02 0.02 0.02 79 1007.2
20260503210304 55 250 12.2 20.0 0.00 0.00 0.00 63 1006.9
20260503200805 55 209 3.5 7.8 0.00 0.00 0.00 53 1006.5
20260503200304 56 147 5.2 11.3 0.00 0.00 0.00 52 1006.6
20260503190805 57 175 5.2 10.4 0.00 0.00 0.00 40 1007.6
20260503190304 57 196 4.3 12.2 0.00 0.00 0.00 40 1007.9
20260503180804 58 223 4.3 10.4 0.00 0.00 0.00 39 1008.4
20260503170804 56 174 5.2 10.4 0.00 0.00 0.00 42 1009.5
20260503170304 55 236 5.2 13.0 0.00 0.00 0.00 42 1009.5
20260503150805 53 241 2.6 7.8 0.00 0.00 0.00 47 1010.9
20260503150305 52 241 3.5 8.7 0.00 0.00 0.00 48 1010.9
20260503140306 48 260 1.7 6.1 0.00 0.00 0.00 56 1011.3
20260503130805 44 347 0.9 1.7 0.00 0.00 0.00 64 1011.7
20260503110805 30 303 0.0 0.0 0.00 0.00 0.00 88 1011.9
20260503110305 30 303 0.0 0.0 0.00 0.00 0.00 88 1012.0
20260503090305 29 303 0.0 0.9 0.00 0.00 0.00 86 1012.4
20260503080805 30 303 0.0 0.0 0.00 0.00 0.00 85 1012.8
20260503080305 30 303 0.0 0.9 0.00 0.00 0.00 85 1012.8
20260503070805 31 303 0.0 0.0 0.00 0.00 0.00 83 1012.8
20260503060305 32 303 0.0 0.0 0.00 0.00 0.00 80 1013.2
20260503050804 33 303 0.0 0.0 0.00 0.00 0.00 79 1013.3
20260503050304 33 303 0.0 1.7 0.00 0.00 0.00 79 1013.4
20260503040805 35 303 0.0 0.9 0.00 0.00 0.00 77 1013.5
20260503040304 35 303 0.0 2.6 0.00 0.00 0.00 76 1013.5
20260503030805 37 296 0.0 0.0 0.00 0.00 0.00 72 1013.5
20260503030305 37 296 0.0 0.0 0.00 0.00 0.00 72 1013.5
20260503020805 39 296 0.0 0.0 0.00 0.00 0.00 65 1013.6
20260503020305 40 296 0.0 0.0 0.00 0.00 0.00 64 1013.6
20260503010305 42 296 0.0 2.6 0.00 0.00 0.00 61 1013.4